TimeCST,TemperatureF,Dew PointF,Humidity,Sea Level PressureIn,VisibilityMPH,Wind Direction,Wind SpeedMPH,Gust SpeedMPH,PrecipitationIn,Events,Conditions,WindDirDegrees,DateUTC
12:53 AM,24.1,19.9,84,30.15,10.0,Calm,Calm,-,N/A,,Clear,0,2012-12-27 06:53:00
1:53 AM,21.0,18.0,88,30.14,10.0,Calm,Calm,-,N/A,,Partly Cloudy,0,2012-12-27 07:53:00
2:53 AM,23.0,18.0,81,30.13,10.0,Calm,Calm,-,N/A,,Partly Cloudy,0,2012-12-27 08:53:00
3:53 AM,23.0,18.0,81,30.12,10.0,Calm,Calm,-,N/A,,Partly Cloudy,0,2012-12-27 09:53:00
4:53 AM,21.9,18.0,85,30.09,10.0,Calm,Calm,-,N/A,,Scattered Clouds,0,2012-12-27 10:53:00
5:53 AM,24.1,19.9,84,30.07,10.0,Calm,Calm,-,N/A,,Mostly Cloudy,0,2012-12-27 11:53:00
6:53 AM,24.1,21.0,88,30.07,10.0,Calm,Calm,-,N/A,,Mostly Cloudy,0,2012-12-27 12:53:00
7:53 AM,27.0,24.1,89,30.06,10.0,Calm,Calm,-,N/A,,Mostly Cloudy,0,2012-12-27 13:53:00
8:53 AM,33.8,24.8,70,30.03,10.0,Calm,Calm,-,N/A,,Overcast,0,2012-12-27 14:53:00
9:20 AM,35.6,24.8,65,30.03,10.0,Calm,Calm,-,N/A,,Overcast,0,2012-12-27 15:20:00
9:53 AM,37.0,26.1,65,30.07,10.0,Calm,Calm,-,N/A,,Overcast,0,2012-12-27 15:53:00
10:47 AM,39.2,28.4,65,30.03,10.0,Calm,Calm,-,N/A,,Overcast,0,2012-12-27 16:47:00
10:53 AM,39.9,28.0,63,30.05,10.0,Calm,Calm,-,N/A,,Overcast,0,2012-12-27 16:53:00
11:34 AM,42.8,30.2,61,30.02,10.0,Calm,Calm,-,N/A,,Overcast,0,2012-12-27 17:34:00
11:53 AM,44.1,30.9,60,30.03,10.0,NNE,3.5,-,N/A,,Overcast,30,2012-12-27 17:53:00
12:23 PM,44.6,32.0,61,29.98,10.0,NNE,5.8,-,N/A,,Overcast,30,2012-12-27 18:23:00
12:53 PM,44.1,33.1,65,29.99,10.0,Calm,Calm,-,N/A,,Overcast,0,2012-12-27 18:53:00
1:53 PM,44.1,36.0,73,29.95,7.0,Calm,Calm,-,N/A,,Overcast,0,2012-12-27 19:53:00
2:09 PM,44.6,37.4,76,29.92,7.0,Calm,Calm,-,N/A,,Overcast,0,2012-12-27 20:09:00
2:53 PM,45.0,37.9,76,29.93,8.0,Variable,4.6,-,N/A,,Overcast,0,2012-12-27 20:53:00
3:16 PM,44.6,39.2,81,29.90,5.0,North,3.5,-,0.00,Rain,Light Rain,10,2012-12-27 21:16:00
3:53 PM,45.0,41.0,86,29.92,6.0,NE,4.6,-,0.00,,Overcast,40,2012-12-27 21:53:00
4:53 PM,45.0,43.0,93,29.91,3.0,ENE,5.8,-,N/A,,Overcast,60,2012-12-27 22:53:00
5:16 PM,44.6,42.8,93,29.88,2.0,Variable,4.6,-,N/A,,Overcast,0,2012-12-27 23:16:00
5:53 PM,44.6,42.8,93,29.88,2.0,NNE,5.8,-,N/A,,Light Drizzle,30,2012-12-27 23:53:00
6:53 PM,45.0,43.0,93,29.90,1.5,ENE,4.6,-,0.00,,Light Drizzle,60,2012-12-28 00:53:00
7:53 PM,45.0,44.1,97,29.92,1.5,North,8.1,-,0.00,,Light Drizzle,10,2012-12-28 01:53:00
8:34 PM,44.6,44.6,100,29.88,1.5,ENE,4.6,-,0.00,,Light Drizzle,70,2012-12-28 02:34:00
8:53 PM,45.0,44.1,97,29.90,1.0,ENE,4.6,-,0.00,,Light Drizzle,60,2012-12-28 02:53:00
9:37 PM,44.6,44.6,100,29.87,0.5,Calm,Calm,-,0.00,,Light Drizzle,0,2012-12-28 03:37:00
9:53 PM,45.0,45.0,100,29.88,0.5,Calm,Calm,-,0.00,Fog,Light Drizzle,0,2012-12-28 03:53:00
10:38 PM,44.6,44.6,100,29.85,0.2,Calm,Calm,-,0.00,Fog,Fog,0,2012-12-28 04:38:00
10:53 PM,45.0,45.0,100,29.86,0.2,Calm,Calm,-,0.00,Fog,Fog,0,2012-12-28 04:53:00
11:33 PM,44.6,44.6,100,29.85,0.1,North,4.6,-,N/A,Fog,Fog,350,2012-12-28 05:33:00
11:53 PM,45.0,45.0,100,29.84,0.1,North,3.5,-,N/A,Fog,Fog,360,2012-12-28 05:53:00